Flag for Germany Weather past 2 weeks in Rietberg, North Rhine-Westphalia, Germany

Now
37 °F

Clear.


Feels Like: 33 °F
Forecast: 35 / 64 °F
Wind: 6 mph from Southeast

Location: Paderborn / Lippstadt

Current Time: Apr 20, 2015 at 3:38:59 AM

Latest Report: Apr 20, 2015 at 2:50 AM


Visibility: 10 mi

Pressure: 30.27 "Hg

Humidity: 75%

Dew point: 30 °F

Location of RietbergLocation

Historic Weather in Rietberg — Graph

°F

Rietberg temperature yesterday

Maximum temperature yesterday: 57 °F (at 3:20 PM)
Minimum temperature yesterday: 28 °F (at 6:50 AM)
Average temperature yesterday: 45 °F

Past Weeks' High & Low Weather Summary

 TemperatureHumidityPressure
High70 °F (Apr 15, 2:20 PM)93% (Apr 5, 3:50 AM)30.60 "Hg (Apr 5, 3:50 AM)
Low27 °F (Apr 5, 5:50 AM)28% (Apr 10, 6:20 PM)29.92 "Hg (Apr 15, 8:20 PM)
Average47 °F62%30.25 "Hg
* Reported Apr 5 2:20 AM — Apr 20 2:20 AM, Rietberg, Weather by CustomWeather, © 2015

Note: Actual official high and low records may vary slightly from our data, if they occured in-between our weather recording intervals... More about our weather records

Advertising

Rietberg weather history for previous 24 hours

 ConditionsComfort  
Time TempWeatherWind HumidityBarometerVisibility
2:20 AM
Mon, Apr 20
37 °FClear.5 mph81%30.27 "Hg10 mi
1:50 AM39 °FClear.3 mph70%30.27 "Hg10 mi
1:20 AM41 °FClear.5 mph66%30.27 "Hg10 mi
12:50 AM43 °FClear.2 mph61%30.24 "Hg10 mi
12:20 AM43 °FClear.3 mph61%30.24 "Hg10 mi
11:50 PM
Sun, Apr 19
45 °FClear.5 mph57%30.24 "Hg10 mi
11:20 PM46 °FClear.5 mph53%30.24 "Hg10 mi
10:50 PM46 °FClear.6 mph57%30.24 "Hg10 mi
10:20 PM48 °FClear.8 mph54%30.24 "Hg10 mi
9:50 PM48 °FClear.8 mph58%30.21 "Hg10 mi
9:20 PM46 °FSunny.7 mph62%30.21 "Hg10 mi
8:50 PM50 °FSunny.7 mph54%30.18 "Hg10 mi
8:20 PM52 °FSunny.6 mph47%30.18 "Hg10 mi
7:50 PM54 °FSunny.6 mph44%30.18 "Hg10 mi
7:20 PM57 °FPassing clouds.7 mph33%30.18 "HgN/A
6:50 PM57 °FSunny.7 mph31%30.18 "Hg10 mi
6:20 PM57 °FSunny.7 mph29%30.15 "Hg10 mi
5:50 PM57 °FPassing clouds.9 mph29%30.15 "HgN/A
5:20 PM57 °FPassing clouds.8 mph29%30.15 "HgN/A
4:50 PM57 °FPassing clouds.8 mph33%30.15 "HgN/A
4:20 PM57 °FSunny.7 mph33%30.15 "Hg10 mi
3:50 PM57 °FPassing clouds.7 mph31%30.15 "HgN/A
3:20 PM57 °FPassing clouds.7 mph33%30.15 "HgN/A
2:50 PM55 °FPassing clouds.7 mph36%30.18 "HgN/A
2:20 PM54 °FSunny.6 mph33%30.18 "Hg10 mi
1:50 PM55 °FPassing clouds.6 mph33%30.18 "HgN/A
1:20 PM54 °FPassing clouds.7 mph33%30.18 "HgN/A
12:50 PM54 °FSunny.6 mph38%30.18 "Hg10 mi
12:20 PM52 °FSunny.5 mph44%30.18 "Hg10 mi
11:50 AM50 °FPassing clouds.5 mph50%30.18 "HgN/A
11:20 AM48 °FPassing clouds.3 mph62%30.18 "HgN/A
10:50 AM45 °FPassing clouds.3 mph66%30.18 "HgN/A
10:20 AM43 °FPassing clouds.5 mph71%30.18 "HgN/A
9:50 AM43 °FSunny.2 mph66%30.18 "Hg10 mi
9:20 AM43 °FSunny.2 mph66%30.18 "Hg10 mi
8:50 AM37 °FSunny.2 mph75%30.18 "Hg10 mi
8:15 AM34 °FSunny.2 mph87%30.18 "Hg10 mi
7:50 AM32 °FSunny.8 mph87%30.18 "Hg10 mi
7:20 AM30 °FClear.7 mph86%30.18 "Hg10 mi
6:50 AM28 °FClear.7 mph86%30.18 "Hg10 mi
6:20 AM30 °FClear.1 mph86%30.18 "Hg10 mi
5:50 AM30 °FClear.2 mph86%30.18 "Hg10 mi
5:20 AM30 °FPassing clouds.3 mph86%30.18 "HgN/A
4:50 AM30 °FClear.2 mph86%30.18 "Hg10 mi
4:20 AM32 °FPassing clouds.3 mph80%30.21 "HgN/A
3:50 AM32 °FPassing clouds.3 mph80%30.21 "HgN/A
3:20 AM32 °FPassing clouds.5 mph80%30.21 "HgN/A
Weather by CustomWeather, © 2015

See weather overviewHow to use our weather pages